| time (UTC) | temp C | wind direction | speed KPH | gust KPH | rain 1hr cm | rain 24hr cm | rain mn cm | humidity % | barometer mb |
| 20260504003349 | 26 | 117 | 1.6 | 3.2 | 0.00 | 0.00 | 0.00 | 56 | 1020.3 |
| 20260504002848 | 26 | 164 | 0.0 | 0.0 | 0.00 | 0.00 | 0.00 | 56 | 1020.3 |
| 20260504002352 | 26 | 161 | 0.0 | 0.0 | 0.00 | 0.00 | 0.00 | 55 | 1020.1 |
| 20260504001848 | 26 | 131 | 6.4 | 9.7 | 0.00 | 0.00 | 0.00 | 55 | 1020.1 |
| 20260504001352 | 26 | 163 | 1.6 | 4.8 | 0.00 | 0.00 | 0.00 | 55 | 1019.9 |
| 20260504000848 | 26 | 150 | 6.4 | 9.7 | 0.00 | 0.00 | 0.00 | 55 | 1020.2 |
| 20260504000349 | 26 | 176 | 0.0 | 0.0 | 0.00 | 0.00 | 0.00 | 54 | 1020.2 |
| 20260503235848 | 26 | 159 | 4.8 | 6.4 | 0.00 | 0.00 | 0.00 | 54 | 1020.2 |
| 20260503235352 | 26 | 171 | 1.6 | 4.8 | 0.00 | 0.00 | 0.00 | 54 | 1020.3 |
| 20260503234848 | 26 | 122 | 1.6 | 3.2 | 0.00 | 0.00 | 0.00 | 54 | 1020.5 |
| 20260503234352 | 26 | 168 | 4.8 | 6.4 | 0.00 | 0.00 | 0.00 | 54 | 1020.4 |
| 20260503233848 | 26 | 64 | 6.4 | 9.7 | 0.00 | 0.00 | 0.00 | 53 | 1020.4 |
| 20260503233349 | 27 | 102 | 3.2 | 4.8 | 0.00 | 0.00 | 0.00 | 53 | 1020.1 |
| 20260503232849 | 27 | 214 | 1.6 | 4.8 | 0.00 | 0.00 | 0.00 | 52 | 1020.3 |
| 20260503232353 | 27 | 147 | 1.6 | 4.8 | 0.00 | 0.00 | 0.00 | 53 | 1020.2 |
| 20260503231849 | 28 | 179 | 1.6 | 4.8 | 0.00 | 0.00 | 0.00 | 51 | 1020.4 |
| 20260503231352 | 27 | 170 | 4.8 | 9.7 | 0.00 | 0.00 | 0.00 | 51 | 1020.3 |
| 20260503230849 | 27 | 156 | 1.6 | 3.2 | 0.00 | 0.00 | 0.00 | 52 | 1020.2 |
| 20260503230348 | 27 | 217 | 3.2 | 6.4 | 0.00 | 0.00 | 0.00 | 52 | 1020.5 |
| 20260503225849 | 27 | 29 | 1.6 | 4.8 | 0.00 | 0.00 | 0.00 | 53 | 1020.3 |
| 20260503225352 | 27 | 145 | 3.2 | 6.4 | 0.00 | 0.00 | 0.00 | 51 | 1020.3 |
| 20260503224849 | 27 | 200 | 3.2 | 4.8 | 0.00 | 0.00 | 0.00 | 52 | 1020.5 |
| 20260503224352 | 28 | 173 | 4.8 | 6.4 | 0.00 | 0.00 | 0.00 | 51 | 1020.8 |
| 20260503223849 | 27 | 193 | 1.6 | 3.2 | 0.00 | 0.00 | 0.00 | 52 | 1020.6 |
| 20260503223348 | 27 | 93 | 4.8 | 6.4 | 0.00 | 0.00 | 0.00 | 52 | 1020.8 |
| 20260503222849 | 27 | 71 | 3.2 | 6.4 | 0.00 | 0.00 | 0.00 | 52 | 1020.6 |
| 20260503222352 | 27 | 142 | 6.4 | 9.7 | 0.00 | 0.00 | 0.00 | 53 | 1020.5 |
| 20260503221849 | 27 | 110 | 1.6 | 3.2 | 0.00 | 0.00 | 0.00 | 51 | 1020.5 |
| 20260503221352 | 27 | 146 | 3.2 | 4.8 | 0.00 | 0.00 | 0.00 | 51 | 1020.4 |
| 20260503220849 | 27 | 164 | 3.2 | 4.8 | 0.00 | 0.00 | 0.00 | 52 | 1020.5 |
| 20260503220348 | 27 | 101 | 3.2 | 4.8 | 0.00 | 0.00 | 0.00 | 52 | 1020.6 |
| 20260503215849 | 27 | 143 | 0.0 | 0.0 | 0.00 | 0.00 | 0.00 | 51 | 1020.8 |
| 20260503215352 | 27 | 166 | 0.0 | 0.0 | 0.00 | 0.00 | 0.00 | 53 | 1020.8 |
| 20260503214849 | 27 | 175 | 3.2 | 4.8 | 0.00 | 0.00 | 0.00 | 51 | 1020.9 |
| 20260503214352 | 28 | 135 | 6.4 | 9.7 | 0.00 | 0.00 | 0.00 | 51 | 1021.4 |
| 20260503213849 | 28 | 138 | 6.4 | 9.7 | 0.00 | 0.00 | 0.00 | 51 | 1021.1 |
| 20260503213349 | 28 | 200 | 3.2 | 4.8 | 0.00 | 0.00 | 0.00 | 51 | 1021.4 |
| 20260503212849 | 27 | 123 | 4.8 | 6.4 | 0.00 | 0.00 | 0.00 | 52 | 1021.5 |
| 20260503212352 | 27 | 166 | 1.6 | 3.2 | 0.00 | 0.00 | 0.00 | 53 | 1021.6 |
| 20260503211849 | 27 | 143 | 1.6 | 3.2 | 0.00 | 0.00 | 0.00 | 52 | 1021.6 |
| 20260503211352 | 27 | 201 | 4.8 | 6.4 | 0.00 | 0.00 | 0.00 | 52 | 1021.7 |
| 20260503210848 | 27 | 241 | 3.2 | 8.0 | 0.00 | 0.00 | 0.00 | 54 | 1021.7 |
| 20260503210349 | 27 | 193 | 1.6 | 3.2 | 0.00 | 0.00 | 0.00 | 51 | 1022.0 |
| 20260503205849 | 27 | 162 | 0.0 | 0.0 | 0.00 | 0.00 | 0.00 | 53 | 1022.3 |
| 20260503205352 | 27 | 148 | 6.4 | 9.7 | 0.00 | 0.00 | 0.00 | 53 | 1022.5 |
| 20260503204849 | 27 | 140 | 1.6 | 4.8 | 0.00 | 0.00 | 0.00 | 52 | 1022.4 |
| 20260503204352 | 27 | 151 | 3.2 | 6.4 | 0.00 | 0.00 | 0.00 | 53 | 1022.7 |
| 20260503203849 | 26 | 140 | 3.2 | 4.8 | 0.00 | 0.00 | 0.00 | 54 | 1022.6 |
| 20260503203349 | 27 | 129 | 0.0 | 0.0 | 0.00 | 0.00 | 0.00 | 52 | 1023.0 |
| 20260503202849 | 27 | 70 | 0.0 | 0.0 | 0.00 | 0.00 | 0.00 | 53 | 1022.8 |
| 20260503202352 | 27 | 169 | 0.0 | 0.0 | 0.00 | 0.00 | 0.00 | 54 | 1023.2 |
| 20260503201849 | 27 | 83 | 1.6 | 3.2 | 0.00 | 0.00 | 0.00 | 54 | 1023.3 |
| 20260503201352 | 26 | 277 | 6.4 | 14.5 | 0.00 | 0.00 | 0.00 | 54 | 1023.3 |
| 20260503200849 | 26 | 180 | 0.0 | 0.0 | 0.00 | 0.00 | 0.00 | 55 | 1023.3 |
| 20260503200349 | 26 | 166 | 9.7 | 14.5 | 0.00 | 0.00 | 0.00 | 55 | 1023.4 |
| 20260503195849 | 26 | 171 | 3.2 | 4.8 | 0.00 | 0.00 | 0.00 | 54 | 1023.5 |
| 20260503195352 | 26 | 156 | 1.6 | 3.2 | 0.00 | 0.00 | 0.00 | 54 | 1023.6 |
| 20260503194848 | 26 | 173 | 1.6 | 3.2 | 0.00 | 0.00 | 0.00 | 55 | 1023.5 |
| 20260503194352 | 26 | 203 | 0.0 | 0.0 | 0.00 | 0.00 | 0.00 | 55 | 1023.5 |
| 20260503193848 | 26 | 184 | 3.2 | 3.2 | 0.00 | 0.00 | 0.00 | 55 | 1023.8 |
| 20260503193349 | 26 | 124 | 8.0 | 9.7 | 0.00 | 0.00 | 0.00 | 55 | 1023.8 |
| 20260503192849 | 26 | 179 | 0.0 | 0.0 | 0.00 | 0.00 | 0.00 | 54 | 1023.6 |
| 20260503192353 | 26 | 90 | 3.2 | 4.8 | 0.00 | 0.00 | 0.00 | 53 | 1023.7 |
| 20260503191849 | 26 | 180 | 1.6 | 3.2 | 0.00 | 0.00 | 0.00 | 55 | 1023.9 |
| 20260503191353 | 26 | 145 | 1.6 | 3.2 | 0.00 | 0.00 | 0.00 | 54 | 1023.8 |
| 20260503190849 | 26 | 42 | 3.2 | 4.8 | 0.00 | 0.00 | 0.00 | 53 | 1024.1 |
| 20260503190349 | 26 | 169 | 1.6 | 3.2 | 0.00 | 0.00 | 0.00 | 55 | 1024.1 |
| 20260503185849 | 26 | 209 | 3.2 | 6.4 | 0.00 | 0.00 | 0.00 | 55 | 1024.2 |
| 20260503185352 | 27 | 208 | 3.2 | 4.8 | 0.00 | 0.00 | 0.00 | 53 | 1024.2 |
| 20260503184849 | 26 | 97 | 0.0 | 0.0 | 0.00 | 0.00 | 0.00 | 53 | 1024.5 |
| 20260503184352 | 26 | 134 | 0.0 | 0.0 | 0.00 | 0.00 | 0.00 | 55 | 1024.6 |
| 20260503183849 | 26 | 145 | 1.6 | 4.8 | 0.00 | 0.00 | 0.00 | 56 | 1024.6 |
| 20260503183348 | 26 | 155 | 1.6 | 3.2 | 0.00 | 0.00 | 0.00 | 54 | 1024.7 |
| 20260503182849 | 25 | 120 | 1.6 | 3.2 | 0.00 | 0.00 | 0.00 | 55 | 1025.0 |
| 20260503182352 | 26 | 108 | 6.4 | 8.0 | 0.00 | 0.00 | 0.00 | 55 | 1024.9 |
| 20260503181849 | 26 | 105 | 4.8 | 8.0 | 0.00 | 0.00 | 0.00 | 55 | 1025.2 |
| 20260503181352 | 25 | 166 | 4.8 | 6.4 | 0.00 | 0.00 | 0.00 | 57 | 1025.1 |
| 20260503180849 | 25 | 166 | 6.4 | 8.0 | 0.00 | 0.00 | 0.00 | 56 | 1025.5 |
| 20260503180349 | 25 | 156 | 3.2 | 4.8 | 0.00 | 0.00 | 0.00 | 58 | 1025.6 |
| 20260503175849 | 25 | 159 | 1.6 | 3.2 | 0.00 | 0.00 | 0.00 | 58 | 1025.6 |
| 20260503175352 | 25 | 113 | 1.6 | 3.2 | 0.00 | 0.00 | 0.00 | 56 | 1025.7 |
| 20260503174849 | 24 | 145 | 0.0 | 0.0 | 0.00 | 0.00 | 0.00 | 59 | 1025.9 |
| 20260503174352 | 25 | 98 | 0.0 | 0.0 | 0.00 | 0.00 | 0.00 | 59 | 1025.8 |
| 20260503173849 | 25 | 130 | 0.0 | 0.0 | 0.00 | 0.00 | 0.00 | 59 | 1025.9 |
| 20260503173349 | 24 | 209 | 3.2 | 4.8 | 0.00 | 0.00 | 0.00 | 58 | 1025.9 |
| 20260503172849 | 25 | 136 | 11.3 | 14.5 | 0.00 | 0.00 | 0.00 | 58 | 1026.1 |
| 20260503172352 | 24 | 136 | 0.0 | 0.0 | 0.00 | 0.00 | 0.00 | 61 | 1026.3 |
| 20260503171849 | 24 | 160 | 8.0 | 11.3 | 0.00 | 0.00 | 0.00 | 59 | 1026.4 |
| 20260503171352 | 25 | 153 | 3.2 | 4.8 | 0.00 | 0.00 | 0.00 | 59 | 1026.3 |
| 20260503170848 | 24 | 198 | 1.6 | 3.2 | 0.00 | 0.00 | 0.00 | 58 | 1026.7 |
| 20260503170349 | 23 | 117 | 0.0 | 0.0 | 0.00 | 0.00 | 0.00 | 60 | 1026.4 |
| 20260503150849 | 22 | 138 | 0.0 | 0.0 | 0.00 | 0.00 | 0.00 | 68 | 1026.9 |
| 20260503150349 | 21 | 149 | 1.6 | 3.2 | 0.00 | 0.00 | 0.00 | 71 | 1027.2 |
| 20260503131352 | 17 | 96 | 0.0 | 0.0 | 0.00 | 0.00 | 0.00 | 81 | 1026.3 |
| 20260503130849 | 16 | 122 | 0.0 | 0.0 | 0.00 | 0.00 | 0.00 | 83 | 1026.3 |
| 20260503130349 | 15 | 122 | 0.0 | 0.0 | 0.00 | 0.00 | 0.00 | 86 | 1026.2 |
| 20260503110348 | 15 | 153 | 0.0 | 0.0 | 0.00 | 0.00 | 0.00 | 83 | 1025.3 |
| 20260503090349 | 15 | 155 | 0.0 | 0.0 | 0.00 | 0.00 | 0.00 | 81 | 1025.6 |
| 20260503081352 | 15 | 155 | 0.0 | 0.0 | 0.00 | 0.00 | 0.00 | 83 | 1025.5 |
| 20260503080849 | 15 | 155 | 0.0 | 0.0 | 0.00 | 0.00 | 0.00 | 83 | 1025.4 |
| 20260503080349 | 15 | 155 | 0.0 | 0.0 | 0.00 | 0.00 | 0.00 | 82 | 1025.5 |
| 20260503072849 | 15 | 155 | 0.0 | 0.0 | 0.00 | 0.00 | 0.00 | 81 | 1025.6 |
| 20260503072353 | 15 | 155 | 0.0 | 0.0 | 0.00 | 0.00 | 0.00 | 81 | 1025.7 |
| 20260503071849 | 15 | 155 | 0.0 | 0.0 | 0.00 | 0.00 | 0.00 | 81 | 1025.6 |
| 20260503071352 | 15 | 155 | 0.0 | 0.0 | 0.00 | 0.00 | 0.00 | 81 | 1025.6 |
| 20260503070851 | 15 | 155 | 0.0 | 0.0 | 0.00 | 0.00 | 0.00 | 81 | |
| 20260503070849 | 15 | 155 | 0.0 | 0.0 | 0.00 | 0.00 | 0.00 | 81 | 1025.4 |
| 20260503070348 | 15 | 153 | 0.0 | 0.0 | 0.00 | 0.00 | 0.00 | 81 | 1025.2 |
| 20260503054849 | 16 | 153 | 0.0 | 0.0 | 0.00 | 0.00 | 0.00 | 79 | 1026.2 |
| 20260503054352 | 16 | 153 | 0.0 | 0.0 | 0.00 | 0.00 | 0.00 | 79 | 1026.2 |
| 20260503053848 | 16 | 153 | 0.0 | 0.0 | 0.00 | 0.00 | 0.00 | 79 | 1026.1 |
| 20260503053349 | 16 | 152 | 0.0 | 0.0 | 0.00 | 0.00 | 0.00 | 79 | 1026.1 |
| 20260503052848 | 16 | 152 | 0.0 | 0.0 | 0.00 | 0.00 | 0.00 | 79 | 1026.1 |
| 20260503052352 | 16 | 152 | 0.0 | 0.0 | 0.00 | 0.00 | 0.00 | 79 | 1026.0 |
| 20260503051848 | 17 | 152 | 0.0 | 0.0 | 0.00 | 0.00 | 0.00 | 79 | 1025.9 |
| 20260503051352 | 17 | 152 | 0.0 | 0.0 | 0.00 | 0.00 | 0.00 | 79 | 1025.9 |
| 20260503050849 | 17 | 152 | 0.0 | 0.0 | 0.00 | 0.00 | 0.00 | 79 | 1025.8 |
| 20260503050349 | 17 | 152 | 0.0 | 0.0 | 0.00 | 0.00 | 0.00 | 79 | 1025.9 |
| 20260503045849 | 17 | 152 | 0.0 | 0.0 | 0.00 | 0.00 | 0.00 | 78 | 1025.8 |
| 20260503045352 | 17 | 152 | 0.0 | 0.0 | 0.00 | 0.00 | 0.00 | 78 | 1025.8 |
| 20260503044849 | 17 | 152 | 0.0 | 0.0 | 0.00 | 0.00 | 0.00 | 78 | 1025.8 |
| 20260503044352 | 17 | 152 | 0.0 | 0.0 | 0.00 | 0.00 | 0.00 | 78 | 1026.2 |
| 20260503043849 | 17 | 152 | 0.0 | 0.0 | 0.00 | 0.00 | 0.00 | 78 | 1026.1 |
| 20260503043349 | 17 | 151 | 0.0 | 0.0 | 0.00 | 0.00 | 0.00 | 78 | 1026.0 |
| 20260503042849 | 17 | 150 | 0.0 | 0.0 | 0.00 | 0.00 | 0.00 | 78 | 1026.2 |
| 20260503042352 | 17 | 150 | 0.0 | 0.0 | 0.00 | 0.00 | 0.00 | 78 | 1025.9 |
| 20260503041848 | 17 | 150 | 0.0 | 0.0 | 0.00 | 0.00 | 0.00 | 77 | 1026.0 |
| 20260503041352 | 17 | 150 | 0.0 | 0.0 | 0.00 | 0.00 | 0.00 | 77 | 1025.9 |
| 20260503040848 | 17 | 150 | 0.0 | 0.0 | 0.00 | 0.00 | 0.00 | 77 | 1026.2 |
| 20260503040349 | 17 | 150 | 0.0 | 0.0 | 0.00 | 0.00 | 0.00 | 77 | 1025.8 |
| 20260503035848 | 17 | 150 | 0.0 | 0.0 | 0.00 | 0.00 | 0.00 | 76 | 1025.9 |
| 20260503035352 | 17 | 147 | 0.0 | 0.0 | 0.00 | 0.00 | 0.00 | 76 | 1025.8 |
| 20260503034848 | 17 | 145 | 0.0 | 0.0 | 0.00 | 0.00 | 0.00 | 76 | 1025.9 |
| 20260503034353 | 18 | 144 | 0.0 | 0.0 | 0.00 | 0.00 | 0.00 | 75 | 1025.8 |
| 20260503033849 | 18 | 144 | 0.0 | 0.0 | 0.00 | 0.00 | 0.00 | 74 | 1025.9 |
| 20260503033349 | 18 | 144 | 0.0 | 0.0 | 0.00 | 0.00 | 0.00 | 74 | 1026.0 |
| 20260503032849 | 18 | 143 | 0.0 | 0.0 | 0.00 | 0.00 | 0.00 | 73 | 1025.7 |
| 20260503032353 | 18 | 114 | 0.0 | 0.0 | 0.00 | 0.00 | 0.00 | 72 | 1025.5 |
| 20260503031849 | 18 | 72 | 3.2 | 6.4 | 0.00 | 0.00 | 0.00 | 72 | 1025.5 |
| 20260503031353 | 18 | 148 | 0.0 | 0.0 | 0.00 | 0.00 | 0.00 | 72 | 1025.5 |
| 20260503030849 | 19 | 149 | 0.0 | 0.0 | 0.00 | 0.00 | 0.00 | 71 | 1025.4 |
| 20260503030348 | 19 | 150 | 0.0 | 0.0 | 0.00 | 0.00 | 0.00 | 71 | 1025.5 |
| 20260503025849 | 19 | 152 | 0.0 | 0.0 | 0.00 | 0.00 | 0.00 | 70 | 1025.4 |
| 20260503025352 | 19 | 146 | 0.0 | 0.0 | 0.00 | 0.00 | 0.00 | 70 | 1025.3 |
| 20260503024849 | 19 | 145 | 0.0 | 0.0 | 0.00 | 0.00 | 0.00 | 70 | 1025.1 |
| 20260503024353 | 20 | 141 | 0.0 | 0.0 | 0.00 | 0.00 | 0.00 | 69 | 1025.0 |
| 20260503023849 | 20 | 141 | 0.0 | 0.0 | 0.00 | 0.00 | 0.00 | 70 | 1025.0 |
| 20260503023349 | 20 | 139 | 0.0 | 0.0 | 0.00 | 0.00 | 0.00 | 69 | 1025.2 |
| 20260503022849 | 20 | 152 | 0.0 | 0.0 | 0.00 | 0.00 | 0.00 | 69 | 1025.1 |
| 20260503022352 | 20 | 170 | 0.0 | 0.0 | 0.00 | 0.00 | 0.00 | 68 | 1025.0 |
| 20260503021849 | 20 | 144 | 0.0 | 0.0 | 0.00 | 0.00 | 0.00 | 69 | 1025.1 |
| 20260503021352 | 20 | 143 | 0.0 | 0.0 | 0.00 | 0.00 | 0.00 | 68 | 1024.9 |
| 20260503020849 | 20 | 143 | 0.0 | 0.0 | 0.00 | 0.00 | 0.00 | 68 | 1025.0 |
| 20260503020349 | 20 | 143 | 0.0 | 0.0 | 0.00 | 0.00 | 0.00 | 68 | 1024.9 |
| 20260503015849 | 20 | 144 | 0.0 | 0.0 | 0.00 | 0.00 | 0.00 | 67 | 1024.9 |
| 20260503015352 | 21 | 144 | 0.0 | 0.0 | 0.00 | 0.00 | 0.00 | 66 | 1025.1 |
| 20260503014849 | 21 | 141 | 0.0 | 0.0 | 0.00 | 0.00 | 0.00 | 65 | 1024.9 |
| 20260503014352 | 21 | 143 | 0.0 | 0.0 | 0.00 | 0.00 | 0.00 | 64 | 1024.8 |
| 20260503013848 | 21 | 141 | 0.0 | 0.0 | 0.00 | 0.00 | 0.00 | 63 | 1024.8 |
| 20260503013349 | 21 | 139 | 0.0 | 0.0 | 0.00 | 0.00 | 0.00 | 63 | 1024.5 |
| 20260503012848 | 21 | 139 | 0.0 | 0.0 | 0.00 | 0.00 | 0.00 | 62 | 1024.3 |
| 20260503012353 | 21 | 139 | 0.0 | 0.0 | 0.00 | 0.00 | 0.00 | 62 | 1024.2 |
| 20260503011849 | 21 | 137 | 0.0 | 0.0 | 0.00 | 0.00 | 0.00 | 61 | 1024.2 |
| 20260503011353 | 22 | 121 | 0.0 | 0.0 | 0.00 | 0.00 | 0.00 | 60 | 1024.2 |
| 20260503010849 | 22 | 138 | 0.0 | 0.0 | 0.00 | 0.00 | 0.00 | 59 | 1024.1 |
| 20260503010349 | 22 | 134 | 0.0 | 0.0 | 0.00 | 0.00 | 0.00 | 58 | 1024.0 |
| 20260503005849 | 22 | 126 | 0.0 | 0.0 | 0.00 | 0.00 | 0.00 | 57 | 1023.8 |
| 20260503005353 | 22 | 90 | 1.6 | 3.2 | 0.00 | 0.00 | 0.00 | 56 | 1023.9 |
| 20260503004849 | 22 | 103 | 0.0 | 0.0 | 0.00 | 0.00 | 0.00 | 55 | 1023.8 |
| 20260503004353 | 22 | 87 | 3.2 | 4.8 | 0.00 | 0.00 | 0.00 | 55 | 1024.0 |
| 20260503003849 | 22 | 149 | 0.0 | 0.0 | 0.00 | 0.00 | 0.00 | 56 | 1023.6 |